Time,TemperatureF,DewpointF,PressureIn,WindDirection,WindDirectionDegrees,WindSpeedMPH,WindSpeedGustMPH,Humidity,HourlyPrecipIn,Conditions,Clouds,dailyrainin,SoftwareType,DateUTC
2013-03-31 00:03:00,47.0,-99.9,-100.00,South,175,4.0,6.0,48,0.00,,,-99.99,,2013-03-31 04:03:00,
2013-03-31 00:13:00,47.0,28.0,-100.00,South,170,4.0,5.0,48,0.00,,,-99.99,,2013-03-31 04:13:00,
2013-03-31 00:23:00,47.0,28.0,-100.00,South,175,5.0,7.0,48,0.00,,,-99.99,,2013-03-31 04:23:00,
2013-03-31 00:33:00,47.0,28.0,-100.00,South,170,4.0,6.0,48,0.00,,,-99.99,,2013-03-31 04:33:00,
2013-03-31 00:42:00,47.0,28.0,-100.00,South,175,4.0,7.0,48,0.00,,,-99.99,,2013-03-31 04:42:00,
2013-03-31 00:52:00,47.0,28.0,-100.00,South,180,3.0,6.0,47,0.00,,,-99.99,,2013-03-31 04:52:00,
2013-03-31 01:02:00,47.0,28.0,-100.00,South,175,4.0,6.0,47,0.00,,,-99.99,,2013-03-31 05:02:00,
2013-03-31 01:12:00,47.0,28.0,-100.00,South,170,4.0,6.0,47,0.00,,,-99.99,,2013-03-31 05:12:00,
2013-03-31 01:22:00,48.0,28.0,-100.00,South,170,4.0,6.0,46,0.00,,,-99.99,,2013-03-31 05:22:00,
2013-03-31 01:32:00,48.0,28.0,-100.00,South,170,4.0,6.0,45,0.00,,,-99.99,,2013-03-31 05:32:00,
2013-03-31 01:42:00,48.0,28.0,-100.00,South,175,4.0,6.0,45,0.00,,,-99.99,,2013-03-31 05:42:00,
2013-03-31 01:52:00,47.0,27.0,-100.00,South,170,5.0,7.0,45,0.00,,,-99.99,,2013-03-31 05:52:00,
2013-03-31 02:02:00,47.0,27.0,-100.00,South,175,4.0,7.0,44,0.00,,,-99.99,,2013-03-31 06:02:00,
2013-03-31 02:12:00,47.0,27.0,-100.00,South,180,4.0,7.0,45,0.00,,,-99.99,,2013-03-31 06:12:00,
2013-03-31 02:22:00,47.0,27.0,-100.00,South,170,5.0,7.0,45,0.00,,,-99.99,,2013-03-31 06:22:00,
2013-03-31 02:33:00,47.0,27.0,-100.00,South,170,5.0,7.0,45,0.00,,,-99.99,,2013-03-31 06:33:00,
2013-03-31 02:42:00,47.0,26.0,-100.00,SSE,155,6.0,7.0,44,0.00,,,-99.99,,2013-03-31 06:42:00,
2013-03-31 02:52:00,47.0,26.0,-100.00,SSE,160,6.0,8.0,44,0.00,,,-99.99,,2013-03-31 06:52:00,
2013-03-31 03:02:00,47.0,26.0,-100.00,South,170,5.0,9.0,43,0.00,,,-99.99,,2013-03-31 07:02:00,
2013-03-31 03:12:00,47.0,26.0,-100.00,SSE,160,4.0,7.0,43,0.00,,,-99.99,,2013-03-31 07:12:00,
2013-03-31 03:22:00,46.0,26.0,-100.00,SSE,155,4.0,8.0,43,0.00,,,-99.99,,2013-03-31 07:22:00,
2013-03-31 03:33:00,46.0,26.0,-100.00,SSE,165,5.0,7.0,44,0.00,,,-99.99,,2013-03-31 07:33:00,
2013-03-31 03:42:00,46.0,26.0,-100.00,SSE,155,4.0,7.0,44,0.00,,,-99.99,,2013-03-31 07:42:00,
2013-03-31 03:52:00,46.0,25.0,-100.00,South,170,6.0,7.0,44,0.00,,,-99.99,,2013-03-31 07:52:00,
2013-03-31 04:02:00,46.0,25.0,-100.00,SSE,160,4.0,8.0,44,0.00,,,-99.99,,2013-03-31 08:02:00,
2013-03-31 04:12:00,46.0,25.0,-100.00,SSE,165,6.0,9.0,44,0.00,,,-99.99,,2013-03-31 08:12:00,
2013-03-31 04:22:00,46.0,25.0,-100.00,SSE,165,7.0,10.0,44,0.00,,,-99.99,,2013-03-31 08:22:00,
2013-03-31 04:32:00,46.0,25.0,-100.00,South,175,7.0,11.0,44,0.00,,,-99.99,,2013-03-31 08:32:00,
2013-03-31 04:42:00,46.0,25.0,-100.00,South,180,7.0,9.0,44,0.00,,,-99.99,,2013-03-31 08:42:00,
2013-03-31 04:52:00,46.0,25.0,-100.00,South,170,7.0,11.0,44,0.00,,,-99.99,,2013-03-31 08:52:00,
2013-03-31 05:02:00,45.0,25.0,-100.00,South,170,7.0,12.0,44,0.00,,,-99.99,,2013-03-31 09:02:00,
2013-03-31 05:12:00,45.0,25.0,-100.00,SSE,165,6.0,11.0,44,0.00,,,-99.99,,2013-03-31 09:12:00,
2013-03-31 05:22:00,45.0,25.0,-100.00,SSE,165,7.0,10.0,44,0.00,,,-99.99,,2013-03-31 09:22:00,
2013-03-31 05:33:00,45.0,25.0,-100.00,South,175,7.0,9.0,44,0.00,,,-99.99,,2013-03-31 09:33:00,
2013-03-31 05:42:00,45.0,25.0,-100.00,South,175,7.0,9.0,44,0.00,,,-99.99,,2013-03-31 09:42:00,
2013-03-31 05:53:00,45.0,25.0,-100.00,South,175,7.0,9.0,44,0.00,,,-99.99,,2013-03-31 09:53:00,
2013-03-31 06:03:00,45.0,25.0,-100.00,South,175,5.0,9.0,44,0.00,,,-99.99,,2013-03-31 10:03:00,
2013-03-31 06:13:00,45.0,24.0,-100.00,South,170,6.0,9.0,44,0.00,,,-99.99,,2013-03-31 10:13:00,
2013-03-31 06:24:00,45.0,25.0,-100.00,South,180,6.0,10.0,45,0.00,,,-99.99,,2013-03-31 10:24:00,
2013-03-31 06:33:00,45.0,25.0,-100.00,South,180,6.0,11.0,45,0.00,,,-99.99,,2013-03-31 10:33:00,
2013-03-31 06:42:00,45.0,25.0,-100.00,South,170,6.0,7.0,45,0.00,,,-99.99,,2013-03-31 10:42:00,
2013-03-31 06:53:00,45.0,25.0,-100.00,South,180,7.0,9.0,45,0.00,,,-99.99,,2013-03-31 10:53:00,
2013-03-31 07:03:00,45.0,25.0,-100.00,South,175,7.0,11.0,45,0.00,,,-99.99,,2013-03-31 11:03:00,
2013-03-31 07:12:00,45.0,25.0,-100.00,South,185,7.0,9.0,46,0.00,,,-99.99,,2013-03-31 11:12:00,
2013-03-31 07:23:00,45.0,26.0,-100.00,South,175,8.0,10.0,46,0.00,,,-99.99,,2013-03-31 11:23:00,
2013-03-31 07:33:00,45.0,26.0,-100.00,South,180,7.0,11.0,46,0.00,,,-99.99,,2013-03-31 11:33:00,
2013-03-31 07:42:00,44.0,26.0,-100.00,South,180,6.0,10.0,47,0.00,,,-99.99,,2013-03-31 11:42:00,
2013-03-31 07:52:00,44.0,25.0,-100.00,South,185,6.0,9.0,47,0.00,,,-99.99,,2013-03-31 11:52:00,
2013-03-31 08:03:00,44.0,26.0,-100.00,South,180,7.0,10.0,47,0.00,,,-99.99,,2013-03-31 12:03:00,
2013-03-31 08:12:00,44.0,26.0,-100.00,South,175,7.0,9.0,47,0.00,,,-99.99,,2013-03-31 12:12:00,
2013-03-31 08:22:00,44.0,26.0,-100.00,South,180,7.0,9.0,47,0.00,,,-99.99,,2013-03-31 12:22:00,
2013-03-31 08:33:00,44.0,26.0,-100.00,South,175,8.0,10.0,47,0.00,,,-99.99,,2013-03-31 12:33:00,
2013-03-31 08:42:00,45.0,26.0,-100.00,South,180,7.0,11.0,48,0.00,,,-99.99,,2013-03-31 12:42:00,
2013-03-31 08:52:00,45.0,27.0,-100.00,South,180,7.0,10.0,47,0.00,,,-99.99,,2013-03-31 12:52:00,
2013-03-31 09:02:00,46.0,27.0,-100.00,South,180,7.0,13.0,47,0.00,,,-99.99,,2013-03-31 13:02:00,
2013-03-31 09:12:00,46.0,27.0,-100.00,South,185,9.0,14.0,47,0.00,,,-99.99,,2013-03-31 13:12:00,
2013-03-31 09:22:00,46.0,27.0,-100.00,SSW,195,8.0,14.0,47,0.00,,,-99.99,,2013-03-31 13:22:00,
2013-03-31 09:32:00,46.0,27.0,-100.00,SSW,195,9.0,14.0,47,0.00,,,-99.99,,2013-03-31 13:32:00,
2013-03-31 09:42:00,47.0,28.0,-100.00,South,185,7.0,13.0,47,0.00,,,-99.99,,2013-03-31 13:42:00,
2013-03-31 09:52:00,47.0,28.0,-100.00,SSW,195,6.0,15.0,47,0.00,,,-99.99,,2013-03-31 13:52:00,
2013-03-31 10:02:00,48.0,29.0,-100.00,SSW,205,11.0,15.0,47,0.00,,,-99.99,,2013-03-31 14:02:00,
2013-03-31 10:12:00,48.0,29.0,-100.00,SW,225,7.0,15.0,48,0.00,,,-99.99,,2013-03-31 14:12:00,
2013-03-31 10:22:00,48.0,30.0,-100.00,SSW,195,6.0,17.0,49,0.00,,,-99.99,,2013-03-31 14:22:00,
2013-03-31 10:33:00,49.0,31.0,-100.00,SW,215,7.0,16.0,50,0.00,,,-99.99,,2013-03-31 14:33:00,
2013-03-31 10:42:00,49.0,32.0,-100.00,SSW,210,7.0,14.0,51,0.00,,,-99.99,,2013-03-31 14:42:00,
2013-03-31 10:52:00,48.0,32.0,-100.00,SSW,205,5.0,14.0,53,0.00,,,-99.99,,2013-03-31 14:52:00,
2013-03-31 11:03:00,49.0,34.0,-100.00,SSW,200,5.0,14.0,55,0.00,,,-99.99,,2013-03-31 15:03:00,
2013-03-31 11:13:00,49.0,35.0,-100.00,South,180,7.0,13.0,56,0.00,,,-99.99,,2013-03-31 15:13:00,
2013-03-31 11:22:00,50.0,36.0,-100.00,SSW,200,10.0,16.0,58,0.00,,,-99.99,,2013-03-31 15:22:00,
2013-03-31 11:33:00,51.0,37.0,-100.00,South,190,8.0,13.0,59,0.00,,,-99.99,,2013-03-31 15:33:00,
2013-03-31 11:43:00,52.0,39.0,-100.00,South,180,9.0,21.0,61,0.00,,,-99.99,,2013-03-31 15:43:00,
2013-03-31 11:53:00,52.0,40.0,-100.00,SSW,210,8.0,15.0,64,0.00,,,-99.99,,2013-03-31 15:53:00,
2013-03-31 12:03:00,52.0,42.0,-100.00,WSW,240,6.0,14.0,69,0.00,,,-99.99,,2013-03-31 16:03:00,
2013-03-31 12:13:00,51.0,43.0,-100.00,SSW,210,9.0,19.0,75,0.00,,,-99.99,,2013-03-31 16:13:00,
2013-03-31 12:23:00,51.0,44.0,-100.00,SSW,195,11.0,17.0,79,0.00,,,-99.99,,2013-03-31 16:23:00,
2013-03-31 12:33:00,51.0,45.0,-100.00,South,180,6.0,16.0,81,0.00,,,-99.99,,2013-03-31 16:33:00,
2013-03-31 12:43:00,51.0,46.0,-100.00,SSW,205,9.0,15.0,81,0.00,,,-99.99,,2013-03-31 16:43:00,
2013-03-31 12:53:00,51.0,46.0,-100.00,SSW,205,7.0,15.0,81,0.00,,,-99.99,,2013-03-31 16:53:00,
2013-03-31 13:03:00,51.0,46.0,-100.00,SW,230,5.0,14.0,81,0.00,,,-99.99,,2013-03-31 17:03:00,
2013-03-31 13:12:00,51.0,46.0,-100.00,SSW,210,10.0,14.0,81,0.00,,,-99.99,,2013-03-31 17:12:00,
2013-03-31 13:23:00,51.0,46.0,-100.00,SSW,195,9.0,14.0,82,0.00,,,-99.99,,2013-03-31 17:23:00,
2013-03-31 13:32:00,51.0,46.0,-100.00,WSW,245,5.0,15.0,81,0.00,,,-99.99,,2013-03-31 17:32:00,
2013-03-31 13:43:00,52.0,46.0,-100.00,WSW,240,7.0,13.0,81,0.00,,,-99.99,,2013-03-31 17:43:00,
2013-03-31 13:52:00,51.0,46.0,-100.00,SSW,200,5.0,14.0,82,0.00,,,-99.99,,2013-03-31 17:52:00,
2013-03-31 14:03:00,51.0,46.0,-100.00,SW,220,4.0,16.0,82,0.00,,,-99.99,,2013-03-31 18:03:00,
2013-03-31 14:13:00,51.0,46.0,-100.00,SW,220,6.0,15.0,82,0.00,,,-99.99,,2013-03-31 18:13:00,
2013-03-31 14:22:00,52.0,47.0,-100.00,WSW,240,4.0,14.0,82,0.00,,,-99.99,,2013-03-31 18:22:00,
2013-03-31 14:33:00,51.0,46.0,-100.00,SW,215,7.0,17.0,82,0.00,,,-99.99,,2013-03-31 18:33:00,
2013-03-31 14:42:00,51.0,46.0,-100.00,SSW,195,4.0,14.0,82,0.00,,,-99.99,,2013-03-31 18:42:00,
2013-03-31 14:52:00,51.0,46.0,-100.00,SW,225,6.0,12.0,83,0.00,,,-99.99,,2013-03-31 18:52:00,
2013-03-31 15:03:00,51.0,46.0,-100.00,SW,235,5.0,11.0,83,0.00,,,-99.99,,2013-03-31 19:03:00,
2013-03-31 15:12:00,51.0,47.0,-100.00,WSW,245,7.0,14.0,85,3.94,,,-99.99,,2013-03-31 19:12:00,
2013-03-31 15:22:00,50.0,47.0,-100.00,WSW,250,1.0,10.0,87,3.94,,,-99.99,,2013-03-31 19:22:00,
2013-03-31 15:33:00,50.0,47.0,-100.00,SW,220,3.0,10.0,88,0.00,,,-99.99,,2013-03-31 19:33:00,
2013-03-31 15:43:00,50.0,47.0,-100.00,SW,235,4.0,10.0,90,0.00,,,-99.99,,2013-03-31 19:43:00,
2013-03-31 15:53:00,50.0,48.0,-100.00,SW,225,2.0,8.0,91,0.55,,,-99.99,,2013-03-31 19:53:00,
2013-03-31 16:03:00,50.0,47.0,-100.00,West,260,2.0,8.0,91,0.00,,,-99.99,,2013-03-31 20:03:00,
2013-03-31 16:12:00,50.0,48.0,-100.00,SW,235,2.0,7.0,92,0.00,,,-99.99,,2013-03-31 20:12:00,
2013-03-31 16:23:00,50.0,48.0,-100.00,WSW,245,2.0,7.0,92,0.00,,,-99.99,,2013-03-31 20:23:00,
2013-03-31 16:34:00,50.0,48.0,-100.00,WSW,245,4.0,16.0,93,0.00,,,-99.99,,2013-03-31 20:34:00,
2013-03-31 16:43:00,50.0,48.0,-100.00,WSW,245,7.0,16.0,93,0.00,,,-99.99,,2013-03-31 20:43:00,
2013-03-31 16:52:00,50.0,48.0,-100.00,West,265,2.0,15.0,93,0.00,,,-99.99,,2013-03-31 20:52:00,
2013-03-31 17:03:00,50.0,48.0,-100.00,WSW,245,4.0,7.0,92,0.00,,,-99.99,,2013-03-31 21:03:00,
2013-03-31 17:12:00,50.0,47.0,-100.00,SW,230,4.0,12.0,92,0.00,,,-99.99,,2013-03-31 21:12:00,
2013-03-31 17:22:00,50.0,48.0,-100.00,WSW,245,2.0,12.0,92,0.00,,,-99.99,,2013-03-31 21:22:00,
2013-03-31 17:34:00,51.0,48.0,-100.00,WSW,250,7.0,12.0,92,0.00,,,-99.99,,2013-03-31 21:34:00,
2013-03-31 17:43:00,51.0,48.0,-100.00,WSW,240,4.0,14.0,91,0.00,,,-99.99,,2013-03-31 21:43:00,
2013-03-31 17:53:00,51.0,49.0,-100.00,WSW,250,7.0,14.0,90,0.00,,,-99.99,,2013-03-31 21:53:00,
2013-03-31 18:04:00,51.0,47.0,-100.00,WSW,255,7.0,14.0,89,0.00,,,-99.99,,2013-03-31 22:04:00,
2013-03-31 18:13:00,51.0,47.0,-100.00,WSW,250,6.0,15.0,87,0.00,,,-99.99,,2013-03-31 22:13:00,
2013-03-31 18:23:00,50.0,46.0,-100.00,West,275,7.0,13.0,86,0.00,,,-99.99,,2013-03-31 22:23:00,
2013-03-31 18:33:00,51.0,46.0,-100.00,WSW,255,6.0,16.0,85,0.00,,,-99.99,,2013-03-31 22:33:00,
2013-03-31 18:42:00,51.0,46.0,-100.00,West,275,6.0,12.0,83,0.00,,,-99.99,,2013-03-31 22:42:00,
2013-03-31 18:53:00,51.0,46.0,-100.00,West,270,6.0,16.0,83,0.00,,,-99.99,,2013-03-31 22:53:00,
2013-03-31 19:03:00,51.0,46.0,-100.00,West,280,3.0,11.0,82,0.00,,,-99.99,,2013-03-31 23:03:00,
2013-03-31 19:13:00,51.0,46.0,-100.00,West,260,6.0,13.0,81,0.00,,,-99.99,,2013-03-31 23:13:00,
2013-03-31 19:22:00,51.0,45.0,-100.00,SW,230,3.0,13.0,79,0.00,,,-99.99,,2013-03-31 23:22:00,
2013-03-31 19:32:00,51.0,45.0,-100.00,West,280,4.0,9.0,78,0.00,,,-99.99,,2013-03-31 23:32:00,
2013-03-31 19:42:00,51.0,44.0,-100.00,WSW,255,4.0,11.0,78,0.00,,,-99.99,,2013-03-31 23:42:00,
2013-03-31 19:53:00,51.0,44.0,-100.00,WSW,255,3.0,9.0,77,0.00,,,-99.99,,2013-03-31 23:53:00,
2013-03-31 20:02:00,50.0,44.0,-100.00,SW,235,4.0,7.0,78,0.00,,,-99.99,,2013-04-01 00:02:00,
2013-03-31 20:13:00,50.0,44.0,-100.00,SSW,210,4.0,9.0,78,0.00,,,-99.99,,2013-04-01 00:13:00,
2013-03-31 20:22:00,50.0,43.0,-100.00,SW,220,3.0,8.0,78,0.00,,,-99.99,,2013-04-01 00:22:00,
2013-03-31 20:32:00,50.0,43.0,-100.00,SSW,205,4.0,11.0,78,0.00,,,-99.99,,2013-04-01 00:32:00,
2013-03-31 20:43:00,49.0,43.0,-100.00,SSW,195,4.0,9.0,79,0.00,,,-99.99,,2013-04-01 00:43:00,
2013-03-31 20:52:00,49.0,43.0,-100.00,SW,215,4.0,9.0,79,0.00,,,-99.99,,2013-04-01 00:52:00,
2013-03-31 21:03:00,49.0,43.0,-100.00,SSW,210,4.0,10.0,80,0.00,,,-99.99,,2013-04-01 01:03:00,
2013-03-31 21:12:00,49.0,43.0,-100.00,South,180,4.0,10.0,79,0.00,,,-99.99,,2013-04-01 01:12:00,
2013-03-31 21:23:00,49.0,43.0,-100.00,SSW,210,6.0,12.0,79,0.00,,,-99.99,,2013-04-01 01:23:00,
2013-03-31 21:33:00,49.0,43.0,-100.00,SSW,205,7.0,11.0,79,0.00,,,-99.99,,2013-04-01 01:33:00,
2013-03-31 21:42:00,49.0,43.0,-100.00,SSW,205,9.0,13.0,79,0.00,,,-99.99,,2013-04-01 01:42:00,
2013-03-31 21:52:00,49.0,43.0,-100.00,South,185,6.0,14.0,78,0.00,,,-99.99,,2013-04-01 01:52:00,
2013-03-31 22:03:00,49.0,43.0,-100.00,SSW,210,8.0,13.0,78,0.00,,,-99.99,,2013-04-01 02:03:00,
2013-03-31 22:13:00,49.0,43.0,-100.00,SSW,210,8.0,13.0,78,0.00,,,-99.99,,2013-04-01 02:13:00,
2013-03-31 22:23:00,50.0,42.0,-100.00,SSW,205,10.0,16.0,76,0.00,,,-99.99,,2013-04-01 02:23:00,
2013-03-31 22:33:00,49.0,42.0,-100.00,SSW,200,7.0,16.0,75,0.00,,,-99.99,,2013-04-01 02:33:00,
2013-03-31 22:42:00,49.0,42.0,-100.00,SSW,205,6.0,15.0,76,0.00,,,-99.99,,2013-04-01 02:42:00,
2013-03-31 22:53:00,49.0,42.0,-100.00,SSW,210,6.0,9.0,77,1.69,,,-99.99,,2013-04-01 02:53:00,
2013-03-31 23:03:00,49.0,43.0,-100.00,NW,305,1.0,7.0,79,0.00,,,-99.99,,2013-04-01 03:03:00,
2013-03-31 23:12:00,48.0,43.0,-100.00,West,265,4.0,9.0,81,0.00,,,-99.99,,2013-04-01 03:12:00,
2013-03-31 23:22:00,48.0,44.0,-100.00,WSW,250,6.0,17.0,83,0.00,,,-99.99,,2013-04-01 03:22:00,
2013-03-31 23:34:00,48.0,44.0,-100.00,SW,220,7.0,19.0,85,2.83,,,-99.99,,2013-04-01 03:34:00,
2013-03-31 23:43:00,48.0,44.0,-100.00,WSW,245,7.0,12.0,87,0.00,,,-99.99,,2013-04-01 03:43:00,
2013-03-31 23:53:00,47.0,44.0,-100.00,SW,235,2.0,10.0,88,0.00,,,-99.99,,2013-04-01 03:53:00,